Flag for U.S.A. Weather past 2 weeks in Overland Park, Kansas, U.S.A.

Now
19 °F

Clear.


Feels Like: 19 °F
Forecast: 21 / 39 °F
Wind: No wind

Location: Johnson County Executive Airport

Current Time: Dec 28, 2014 at 3:37:29 AM

Latest Report: Dec 28, 2014 at 2:53 AM


Visibility: 10 mi

Pressure: 30.27 "Hg

Humidity: 92%

Dew point: 17 °F

Location of Overland ParkLocation

Historic Weather in Overland Park — Graph

°F

Overland Park temperature yesterday

Maximum temperature yesterday: 37 °F (at 12:53 AM)
Minimum temperature yesterday: 23 °F (at 10:53 PM)
Average temperature yesterday: 30 °F

Past Weeks' High & Low Weather Summary

 TemperatureHumidityPressure
High62 °F (Dec 14, 1:53 PM)100% (Dec 13, 3:53 AM)30.38 "Hg (Dec 13, 3:53 AM)
Low20 °F (Dec 28, 1:53 AM)40% (Dec 25, 3:53 PM)29.43 "Hg (Dec 22, 2:53 PM)
Average39 °F85%29.99 "Hg
* Reported Dec 13 1:53 AM — Dec 28 1:53 AM, Overland Park, Weather by CustomWeather, © 2014

Note: Actual official high and low records may vary slightly from our data, if they occured in-between our weather recording intervals... More about our weather records

Advertising

Overland Park weather history for previous 24 hours

 ConditionsComfort  
Time TempWeatherWind HumidityBarometerVisibility
1:53 AM
Dec 28
20 °FClear.3 mph92%30.27 "Hg10 mi
12:53 AM22 °FClear.No wind85%30.28 "Hg10 mi
11:53 PM
Dec 27
23 °FClear.3 mph81%30.30 "Hg10 mi
10:53 PM23 °FClear.No wind85%30.30 "Hg10 mi
9:53 PM25 °FClear.3 mph69%30.30 "Hg10 mi
8:53 PM26 °FClear.No wind69%30.30 "Hg10 mi
7:53 PM28 °FClear.7 mph69%30.28 "Hg10 mi
6:53 PM28 °FClear.5 mph69%30.28 "Hg10 mi
5:53 PM29 °FClear.5 mph66%30.27 "Hg10 mi
4:53 PM31 °FSunny.8 mph59%30.26 "Hg10 mi
4:00 PM32 °FPassing clouds.8 mph61%30.24 "Hg10 mi
2:53 PM32 °FPartly sunny.12 mph64%30.24 "Hg10 mi
1:53 PM31 °FPartly sunny.9 mph67%30.24 "Hg10 mi
12:53 PM32 °FOvercast.13 mph69%30.23 "Hg10 mi
11:53 AM30 °FOvercast.10 mph79%30.27 "Hg10 mi
10:53 AM30 °FOvercast.7 mph79%30.28 "Hg10 mi
9:53 AM30 °FOvercast.9 mph82%30.26 "Hg10 mi
8:53 AM29 °FOvercast.10 mph82%30.27 "Hg10 mi
7:53 AM30 °FMostly cloudy.9 mph82%30.23 "Hg10 mi
6:53 AM31 °FLight snow. Mostly cloudy.12 mph79%30.22 "Hg10 mi
5:53 AM33 °FMostly cloudy.10 mph82%30.18 "Hg10 mi
4:53 AM34 °FOvercast.13 mph82%30.11 "Hg10 mi
3:53 AM34 °FMostly cloudy.10 mph85%30.11 "Hg10 mi
Weather by CustomWeather, © 2014

See weather overviewHow to use our weather pages